ITOND LIPV-LIPZ

Flight info

Callsign ITOND
Flight time 0h 10m
Altitude 1000
Route CASAVIO
Aircraft P28A/L-S/C

Departure

Time 2026-05-08 16:20
Airport Venice-Lido Giovanni Nicelli Airfield (LIPV)

Arrival

Time 2026-05-08 16:31
Airport Venice Marco Polo Airport (LIPZ)
Time Latitude Longitude Altitude Speed Heading
2026-05-08 16:20 45.52460 12.34173 1259 ft 121 kts 222°
2026-05-08 16:20 45.51866 12.33340 1391 ft 119 kts 223°
2026-05-08 16:21 45.51279 12.32501 1513 ft 120 kts 223°
2026-05-08 16:21 45.50928 12.31411 1506 ft 133 kts 271°
2026-05-08 16:21 45.51472 12.30377 1509 ft 144 kts 335°
2026-05-08 16:21 45.52432 12.30532 1512 ft 145 kts 37°
2026-05-08 16:22 45.52829 12.31765 1507 ft 140 kts 98°
2026-05-08 16:22 45.52297 12.32802 1510 ft 132 kts 159°
2026-05-08 16:22 45.51476 12.32581 1516 ft 125 kts 223°
2026-05-08 16:22 45.51289 12.31419 1510 ft 127 kts 280°
2026-05-08 16:23 45.51901 12.30589 1512 ft 130 kts 346°
2026-05-08 16:23 45.52703 12.31054 1513 ft 130 kts 56°
2026-05-08 16:23 45.52732 12.32234 1518 ft 122 kts 124°
2026-05-08 16:23 45.51998 12.32666 1513 ft 119 kts 192°
2026-05-08 16:24 45.51480 12.31822 1511 ft 123 kts 261°
2026-05-08 16:24 45.51877 12.30752 1512 ft 134 kts 327°
2026-05-08 16:24 45.52772 12.30779 1507 ft 134 kts 34°
2026-05-08 16:24 45.53136 12.31890 1517 ft 126 kts 101°
2026-05-08 16:25 45.52590 12.32751 1509 ft 123 kts 167°
2026-05-08 16:25 45.51841 12.32330 1516 ft 123 kts 234°
2026-05-08 16:25 45.51852 12.31152 1514 ft 129 kts 301°
2026-05-08 16:25 45.52641 12.30666 1507 ft 133 kts
2026-05-08 16:26 45.53299 12.31471 1510 ft 128 kts 75°
2026-05-08 16:26 45.53056 12.32605 1511 ft 123 kts 142°
2026-05-08 16:26 45.52276 12.32672 1513 ft 120 kts 212°
2026-05-08 16:26 45.51979 12.31619 1511 ft 127 kts 277°
2026-05-08 16:27 45.52587 12.30774 1513 ft 130 kts 346°
2026-05-08 16:27 45.53391 12.31223 1509 ft 129 kts 56°
2026-05-08 16:27 45.53436 12.32390 1511 ft 122 kts 123°
2026-05-08 16:27 45.52730 12.32827 1502 ft 117 kts 189°
2026-05-08 16:28 45.51940 12.32427 1396 ft 121 kts 210°
2026-05-08 16:28 45.51297 12.31855 1391 ft 96 kts 211°
2026-05-08 16:28 45.50770 12.31384 1214 ft 83 kts 204°
2026-05-08 16:28 45.50245 12.30952 1069 ft 86 kts 209°
2026-05-08 16:29 45.49749 12.30476 1122 ft 86 kts 213°
2026-05-08 16:29 45.49191 12.30104 1125 ft 90 kts 194°
2026-05-08 16:29 45.48598 12.30371 1087 ft 95 kts 149°
2026-05-08 16:29 45.48218 12.31162 893 ft 115 kts 95°
2026-05-08 16:30 45.48464 12.32199 614 ft 110 kts 54°
2026-05-08 16:30 45.48953 12.32957 288 ft 94 kts 49°
2026-05-08 16:30 45.49398 12.33593 97 ft 82 kts 55°
2026-05-08 16:30 45.49721 12.34154 11 ft 65 kts 45°
2026-05-08 16:31 45.50003 12.34536 9 ft 48 kts 42°
2026-05-08 16:31 45.50220 12.34814 10 ft 38 kts 40°
2026-05-08 16:31 45.50376 12.35000 8 ft 21 kts 37°
2026-05-08 16:31 45.50506 12.35062 9 ft 19 kts 12°
2026-05-08 16:32 45.50583 12.35070 10 ft 8 kts 336°
2026-05-08 16:32 45.50613 12.35007 9 ft 7 kts 276°
2026-05-08 16:32 45.50612 12.34936 10 ft 8 kts 267°
2026-05-08 16:32 45.50607 12.34841 10 ft 18 kts 265°
2026-05-08 16:33 45.50562 12.34692 10 ft 16 kts 217°
2026-05-08 16:33 45.50487 12.34599 11 ft 13 kts 221°
2026-05-08 16:33 45.50414 12.34507 11 ft 12 kts 224°
2026-05-08 16:33 45.50359 12.34437 11 ft 10 kts 220°
2026-05-08 16:34 45.50265 12.34317 11 ft 33 kts 222°
2026-05-08 16:34 45.50127 12.34138 11 ft 40 kts 222°
2026-05-08 16:34 45.49985 12.33958 10 ft 12 kts 220°
2026-05-08 16:34 45.49948 12.33909 10 ft 6 kts 224°
2026-05-08 16:35 45.49915 12.33868 10 ft 10 kts 223°
2026-05-08 16:35 45.49873 12.33812 10 ft 6 kts 224°
2026-05-08 16:35 45.49861 12.33784 10 ft 4 kts 218°
2026-05-08 16:35 45.49856 12.33780 10 ft 0 kts 206°
2026-05-08 16:36 45.49855 12.33778 10 ft 3 kts 248°
2026-05-08 16:37 45.49869 12.33722 10 ft 17 kts 291°
2026-05-08 16:37 45.49879 12.33703 10 ft 0 kts 321°